This demonstration page uses our WeatherBlox Daily Observations layout. Learn more.

Left ArrowRight Arrow

39.01783, -85.05884

Hourly Observations for July 1, 2015

Temp ( °F °C ) Dew Point ( °F °C ) Humidity (%) Winds ( mph kmh ) Pressure ( in mb ) Visibility ( mi km ) Precip ( " mm )
12:52 am 00:52 Mostly Clear with Mist and Fog 64 17.8 62 16.7 93 93 WSW 5 7 29.87 1011 4 6 0.00 0.00
1:52 am 01:52 Partly Cloudy with Mist and Fog 64 17.8 62 16.7 93 93 W 5 7 29.87 1012 5 8 0.00 0.00
2:52 am 02:52 Clear with Mist and Fog 64 17.8 62 16.7 93 93 Calm 29.86 1011 5 8 0.00 0.00
3:18 am 03:18 Clear with Mist and Fog 63 17 61 16 94 94 Calm 29.85 1011 2 3 0.00 0.00
3:52 am 03:52 Clear with Mist and Fog 63 17.2 61 16.1 93 93 Calm 29.86 1011 4 6 0.00 0.00
4:21 am 04:21 Mostly Clear with Mist and Fog 61 16 61 16 100 100 W 3 6 29.88 1012 3 5 0.00 0.00
4:28 am 04:28 Mostly Clear with Mist and Fog 61 16 61 16 100 100 WNW 3 6 29.88 1012 3 4 0.00 0.00
4:52 am 04:52 Partly Cloudy with Mist and Fog 60 15.6 60 15.6 100 100 Calm 29.87 1012 3 4 0.00 0.00
5:43 am 05:43 Partly Cloudy with Mist and Fog 61 16 59 15 94 94 Calm 29.91 1013 2 2 0.00 0.00
5:52 am 05:52 Mostly Cloudy with Fog 61 16.1 60 15.6 97 97 Calm 29.88 1012 1 1 0.00 0.00
6:01 am 06:01 Mostly Cloudy with Fog 61 16 61 16 100 100 Calm 29.91 1013 1 2 0.00 0.00
6:10 am 06:10 Mostly Cloudy with Fog 61 16 61 16 100 100 Calm 29.91 1013 0 0 0.00 0.00
6:52 am 06:52 Mostly Cloudy with Mist and Fog 59 15 58 14.4 96 96 Calm 29.89 1012 1 1 0.00 0.00
7:11 am 07:11 Mostly Cloudy with Patchy Fog 63 17 61 16 94 94 NW 6 9 29.88 1012 1 2 0.00 0.00
7:27 am 07:27 Mostly Cloudy with Patchy Fog 64 18 63 17 94 94 NW 5 7 29.88 1012 2 2 0.00 0.00
7:34 am 07:34 Mostly Cloudy with Patchy Fog 64 18 63 17 94 94 NNW 5 7 29.88 1012 2 3 0.00 0.00
7:52 am 07:52 Mostly Cloudy with Mist and Fog 65 18.3 63 17.2 93 93 Calm 29.89 1012 3 4 0.00 0.00
8:22 am 08:22 Partly Cloudy with Mist and Fog 64 18 63 17 94 94 N 5 7 29.91 1013 3 5 0.00 0.00
8:38 am 08:38 Partly Cloudy with Mist and Fog 64 18 63 17 94 94 N 6 9 29.88 1012 4 6 0.00 0.00
8:52 am 08:52 Partly Cloudy with Mist and Fog 66 18.9 63 17.2 90 90 NNW 5 7 29.91 1013 6 10 0.00 0.00
9:52 am 09:52 Mostly Sunny 71 21.7 61 16.1 71 71 Calm 29.94 1014 8 13 0.00 0.00
10:52 am 10:52 Mostly Cloudy 73 22.8 60 15.6 64 64 N 3 6 29.92 1013 10 16 0.00 0.00
11:52 am 11:52 Mostly Sunny 76 24.4 62 16.7 62 62 Calm 29.94 1014 9 14 0.00 0.00
12:52 pm 12:52 Mostly Cloudy 76 24.4 61 16.1 60 60 Calm 29.93 1014 8 13 0.00 0.00
1:52 pm 13:52 Mostly Cloudy 78 25.6 63 17.2 60 60 NNW 6 9 29.92 1013 8 13 0.00 0.00
2:52 pm 14:52 Mostly Sunny 78 25.6 60 15.6 54 54 W 6 9 29.91 1013 8 13 0.00 0.00
3:52 pm 15:52 Mostly Cloudy 77 25 61 16.1 58 58 SW 6 9 29.90 1013 8 13 0.00 0.00
4:52 pm 16:52 Cloudy 78 25.6 63 17.2 60 60 W 3 6 29.89 1012 8 13 0.00 0.00
5:52 pm 17:52 Cloudy 78 25.6 63 17.2 60 60 Calm 29.87 1012 8 13 0.00 0.00
6:52 pm 18:52 Cloudy 78 25.6 63 17.2 60 60 N 3 6 29.88 1012 7 11 0.00 0.00
7:52 pm 19:52 Mostly Cloudy with Haze 68 20 63 17 83 83 SSW 12 19 29.80 1009 6 10 0.00 0.00
8:52 pm 20:52 Cloudy 73 22.8 64 17.8 74 74 Calm 29.89 1012 7 11 0.00 0.00
9:52 pm 21:52 Cloudy 71 21.7 65 18.3 81 81 Calm 29.90 1013 8 13 0.00 0.00
10:52 pm 22:52 Cloudy 70 21.1 65 18.3 84 84 Calm 29.91 1013 8 13 0.00 0.00
11:52 pm 23:52 Cloudy 69 20.6 65 18.3 87 87 Calm 29.91 1013 7 11 0.00 0.00

Powered by AerisWeather